Volver al catálogo

FENGYUN 1C DEB

ActivoPO
NORAD 37061·DEBRIS·🇨🇳 China

Lanzado May 10, 1999 desde Taiyuan Satellite Launch Center

Loading…

Próximos Pases (próximas 24 horas)

TLE

ActualizadoSource: Space-Track

Época: Sep 12, 2026, 06:03 UTC

1 37061U 99025EEV 26255.25272994  .00001772  00000-0  89297-3 0  9997
2 37061  98.0561 262.2991 0798166  46.6411 319.8455 13.15572440117497

Sigue FENGYUN 1C DEB en tiempo real con AllMySat

Download on the App Store